SCP
1 1 1 1 1 0 0 0 0 0 0 0 0 0 0 0 0 0 0 0 1 1 0 0 0 0 0 0 1 1 1 1 1 1 1 1 1 1 1 1 0 0 0
1 1 1 1 1 0 0 0 0 0 0 0 0 0 0 0 0 0 0 0 0 0 0 0 0 0 0 0 0 1 1 1 1 1 1 1 1 1 1 1 1 1 1
1 1 1 1 1 0 0 0 0 0 0 0 0 0 0 0 0 0 0 0 0 0 0 0 0 0 0 0 0 0 0 0 0 0 0 0 1 1 1 1 1 1 1
1 1 1 1 0 0 0 0 0 0 0 0 0 0 0 0 0 0 0 0 0 0 0 0 0 0 0 0 0 0 0 0 0 0 0 0 0 1 1 1 0 0 0
1 1 1 1 1 0 0 0 0 0 0 0 0 0 0 0 0 0 0 0 0 0 0 0 0 0 0 0 0 0 0 0 0 0 0 1 1 0 0 0 0 0 0
1 1 1 1 0 0 0 0 0 0 0 0 0 0 0 0 0 0 0 0 0 0 0 0 0 0 0 0 0 0 0 0 0 0 0 1 1 0 0 0 0 0 0
1 1 1 1 0 0 0 0 0 0 0 0 0 0 0 0 0 0 0 0 0 0 0 0 0 0 0 0 0 0 0 0 0 0 0 0 0 0 0 0 0 0 0
1 1 1 0 0 0 0 0 0 0 0 0 0 0 0 0 0 0 0 0 0 0 0 0 0 0 0 0 0 0 0 0 0 0 0 0 0 0 0 0 0 0 0
1 1 1 0 0 0 0 0 0 0 0 0 0 0 0 0 0 0 0 0 0 0 0 0 0 0 0 0 0 0 0 0 0 0 0 0 0 0 0 0 0 0 0
0 0 0 0 0 0 0 0 0 0 0 0 0 0 0 0 0 0 0 0 0 0 0 0 0 0 0 0 0 0 0 0 0 0 0 0 0 0 0 0 0 0 0
0 0 0 0 0 0 0 0 0 0 0 0 0 0 0 0 0 0 0 0 0 0 0 0 0 0 0 0 0 0 0 0 0 0 0 0 0 0 0 0 0 0 0
0 0 0 0 0 0 0 0 0 0 0 0 0 0 0 0 0 0 0 0 0 0 0 0 0 0 0 0 0 0 0 0 0 0 0 0 0 0 0 0 0 0 0
0 0 0 0 0 0 0 0 0 0 0 0 0 0 0 0 0 0 0 0 0 0 0 0 0 0 0 0 0 0 0 0 0 0 0 0 0 0 0 0 0 0 0
0 0 0 0 0 0 0 0 0 0 0 0 0 0 0 0 0 0 0 0 0 0 0 0 0 0 0 0 0 0 0 0 0 0 0 0 0 0 0 0 0 0 0
0 0 0 0 0 0 0 0 0 0 0 0 0 0 0 0 0 0 0 0 0 0 0 0 0 0 0 0 0 0 0 0 0 0 0 0 0 0 0 0 0 0 0
0 0 0 0 0 0 0 0 0 0 0 0 0 0 0 0 0 0 0 0 0 0 0 0 0 0 0 0 0 0 0 0 0 0 0 0 0 0 0 0 0 0 0
0 0 0 0 0 0 0 0 0 0 0 0 0 0 0 0 0 0 0 0 0 0 0 0 0 0 0 0 0 0 0 0 0 0 0 0 0 0 0 0 0 0 0
0 0 0 0 0 0 0 0 0 0 0 0 0 0 0 0 0 0 0 0 0 0 0 0 0 0 0 0 0 0 0 0 0 0 0 0 0 0 0 0 0 0 0
0 0 0 0 0 0 0 0 0 0 0 0 0 0 0 0 0 0 0 0 0 0 0 0 0 0 0 0 0 0 0 0 0 0 0 0 0 0 0 0 0 0 0
0 0 0 0 0 0 0 0 0 0 0 0 0 0 0 0 0 0 0 0 0 0 0 0 0 0 0 0 0 0 0 0 0 0 0 0 0 0 0 0 0 0 0
0 0 0 0 0 0 0 0 0 0 0 0 0 0 0 0 0 0 0 0 0 0 0 0 0 0 0 0 0 0 0 0 0 0 0 0 0 0 0 0 0 0 0
0 0 0 0 0 0 0 0 0 0 0 0 0 0 0 0 0 0 0 0 0 0 0 0 0 0 0 0 0 0 0 0 0 0 0 0 0 0 0 0 0 0 0
0 0 0 0 0 0 0 0 0 0 0 0 0 0 0 0 0 0 0 0 0 0 0 0 0 0 0 0 0 0 0 0 0 0 0 0 0 0 0 0 0 0 0
0 0 0 0 0 0 0 0 0 0 0 0 0 0 0 0 0 0 0 0 0 0 0 0 0 0 0 0 0 0 0 0 0 0 0 0 0 0 0 0 0 0 0
0 0 0 0 0 0 0 0 0 0 0 0 0 0 0 0 0 0 0 0 0 0 0 0 0 0 0 0 0 0 0 0 0 0 0 0 0 0 0 0 0 0 0
0 0 0 0 0 0 0 0 0 0 0 0 0 0 0 0 0 0 0 0 0 0 0 0 0 0 0 0 0 0 0 0 0 0 0 0 0 0 0 0 0 0 0
Wind_Speed
0 0 0 1 1 1 1 2 1 2 3 3 3 3 3 3 2 2 3 6 7 7 7 8 7 7 7 6 6 6 6 7 8 9 9 9 9 9 10 10 11 11 11
0 1 0 0 1 1 1 1 2 2 2 2 2 2 3 2 2 2 3 5 7 8 7 7 8 8 7 7 6 6 6 7 7 7 8 8 9 9 10 10 10 11 11
1 0 1 1 1 2 2 1 2 2 2 2 2 3 2 2 2 2 2 3 4 8 9 8 9 9 8 8 7 7 7 7 7 8 8 8 8 8 9 10 10 10 11
0 0 0 1 2 2 1 1 1 1 2 2 2 2 2 1 2 3 3 3 3 3 6 10 10 10 9 9 8 8 8 7 8 8 9 9 9 9 9 9 9 10 10
0 0 0 1 2 1 1 2 1 1 2 2 2 2 2 2 3 4 3 3 3 3 3 6 10 11 10 9 8 8 8 8 7 8 9 9 9 8 8 9 9 9 9
0 1 1 1 2 1 1 1 2 1 2 2 4 3 2 3 2 3 3 3 3 4 4 4 5 7 11 10 9 8 8 9 9 8 8 10 9 9 8 8 9 9 8
1 1 1 1 2 1 2 2 2 2 2 1 2 2 3 3 3 3 3 3 3 3 4 4 4 3 4 9 9 9 9 9 8 8 8 8 7 8 9 9 9 9 9
2 2 1 2 1 1 2 3 2 2 2 1 1 2 2 2 2 3 3 4 4 2 3 4 3 3 3 3 5 8 8 7 7 8 8 7 7 7 8 9 9 10 10
2 2 2 2 2 2 2 2 2 3 2 2 2 1 1 1 1 1 2 2 2 2 2 3 4 3 3 2 3 5 7 7 7 7 7 7 7 7 8 8 10 10 11
2 2 2 2 2 2 2 3 2 2 2 2 2 1 2 1 1 1 1 2 2 3 3 3 2 2 2 2 2 4 5 6 7 7 7 8 8 7 8 9 9 11 11
2 2 2 2 2 2 2 2 1 2 2 2 2 2 2 2 3 2 2 2 2 2 2 2 2 2 2 3 3 4 6 6 6 6 7 8 7 8 8 9 9 9 11
1 2 2 1 1 1 2 2 2 2 2 3 2 2 2 2 2 2 2 2 2 2 2 2 2 2 2 2 3 5 6 6 7 7 7 7 7 8 8 8 9 9 10
1 1 1 1 1 2 2 2 2 3 3 3 3 3 2 2 2 2 2 2 2 2 2 2 2 2 2 2 2 5 6 6 7 7 7 7 7 8 8 8 9 9 9
1 1 0 1 1 2 2 2 3 3 2 3 4 3 2 3 2 2 2 2 3 2 2 2 1 2 2 2 3 6 4 6 7 8 8 8 8 8 8 8 8 8 8
1 0 0 1 1 1 1 2 2 2 2 2 2 2 2 2 2 2 2 2 2 3 3 2 1 1 2 2 4 4 4 6 8 8 8 9 9 9 9 9 9 9 8
2 1 1 1 1 1 1 2 2 2 2 1 2 2 2 2 2 2 2 2 2 2 3 2 1 1 1 2 2 3 3 6 7 8 9 9 9 10 10 10 10 10 9
2 1 1 1 1 1 1 2 2 2 1 1 2 1 2 2 2 2 2 2 2 2 3 3 2 2 1 1 1 2 3 3 4 7 8 8 9 10 10 11 11 10 10
1 1 1 1 2 1 1 2 2 2 1 1 1 1 2 2 1 2 2 2 2 2 2 3 2 2 2 2 2 3 3 4 4 8 10 10 10 10 11 11 11 11 11
1 2 1 1 1 1 1 1 2 2 1 1 1 1 2 1 2 2 2 2 2 2 1 2 3 2 2 2 2 3 3 3 4 5 9 10 10 11 11 11 11 10 11
1 2 1 1 2 1 1 1 1 2 1 1 1 1 1 1 1 2 2 1 1 2 2 2 2 2 1 1 1 2 2 2 3 4 3 5 8 10 11 11 12 11 10
2 1 1 1 1 1 1 2 2 2 1 2 1 1 0 1 1 1 1 1 1 1 1 2 2 2 2 1 2 2 3 3 3 2 2 3 3 4 6 9 11 11 10
2 2 1 1 2 2 2 2 2 2 2 1 1 1 0 1 1 2 2 2 2 2 1 2 2 2 2 3 2 3 2 2 3 2 2 3 3 3 3 4 8 10 11
2 2 1 1 2 1 2 2 2 2 2 2 2 1 2 1 0 1 2 3 3 4 5 3 3 3 3 3 3 3 3 3 4 3 2 3 3 3 3 4 9 11 12
2 2 2 2 2 1 2 2 3 3 2 2 2 2 1 1 2 2 2 1 2 2 4 3 2 3 4 3 3 3 4 4 4 4 3 3 3 3 3 2 7 10 11
2 2 2 2 2 1 1 2 2 2 2 3 2 2 2 1 1 1 1 2 2 3 3 3 3 4 5 6 4 2 3 3 4 3 2 2 3 3 2 2 4 9 10
3 3 3 2 2 2 2 2 2 3 2 2 2 2 2 2 2 2 1 2 3 3 4 4 4 4 5 5 6 4 3 3 3 3 2 1 2 2 2 2 2 3 5
Wind_Direction
282 199 227 243 247 229 220 226 235 235 233 231 243 233 226 219 228 197 159 189 195 200 209 214 217 220 226 229 233 230 225 221 221 217 212 208 207 208 211 209 207 207 208
234 265 225 260 276 270 246 240 240 253 243 240 242 241 246 218 211 212 172 190 204 204 208 215 222 219 221 229 234 234 230 219 218 219 216 211 209 210 212 213 212 210 209
185 269 246 239 257 260 254 242 257 255 247 241 234 241 246 229 205 219 210 189 198 209 210 212 220 218 218 224 231 232 231 226 218 219 219 214 212 212 213 214 213 214 214
242 245 271 271 275 274 275 245 235 266 276 266 258 256 254 224 217 219 220 213 192 199 206 211 216 218 218 222 227 229 232 230 226 224 221 218 215 215 213 210 211 214 215
295 291 283 289 278 275 279 280 252 246 268 275 268 243 235 221 215 227 224 218 197 202 198 202 215 219 217 218 222 228 232 234 233 229 221 219 218 215 212 210 210 212 212
253 287 215 274 293 288 271 264 280 260 254 259 273 271 247 220 217 218 230 224 209 211 203 203 210 215 214 215 218 224 230 233 232 231 226 222 219 217 214 212 211 210 210
232 257 264 252 254 247 271 281 269 273 260 242 273 284 263 223 218 210 213 224 223 221 203 199 205 205 207 215 217 222 229 232 232 233 233 228 223 221 218 215 215 214 214
216 237 229 253 253 245 254 256 257 259 272 260 246 270 279 250 236 228 207 210 216 219 218 218 210 204 209 201 203 213 219 225 230 235 234 231 227 223 222 222 223 221 218
216 236 235 241 248 240 242 253 260 259 262 265 248 240 266 274 310 268 228 218 201 203 216 217 217 206 203 198 192 197 202 209 219 229 232 230 227 226 225 228 229 225 221
237 232 224 231 234 238 249 257 248 263 265 265 268 243 230 250 254 274 271 241 221 212 217 229 214 206 192 185 188 169 189 200 211 226 231 231 231 229 227 229 231 229 225
245 237 217 225 222 225 240 262 284 271 266 269 271 271 270 262 245 244 270 270 260 232 209 207 192 199 198 195 192 186 191 200 207 220 228 230 234 234 234 233 233 233 229
254 234 228 209 214 226 248 254 255 254 253 265 268 263 260 266 262 250 261 263 255 252 228 217 204 201 203 191 199 196 192 197 202 214 222 227 234 236 238 238 238 237 235
264 256 250 211 220 232 246 234 245 246 243 254 257 257 257 260 266 260 257 266 274 266 242 225 205 193 209 189 184 177 189 188 200 210 215 222 233 238 238 239 241 240 237
271 209 231 234 248 244 261 248 252 249 245 248 261 260 255 266 268 263 255 264 280 276 265 250 209 204 206 189 196 190 198 194 197 204 213 221 229 233 234 238 241 240 239
304 63 27 278 279 277 278 269 264 268 253 252 263 274 271 280 292 287 282 265 264 282 276 263 259 231 223 200 192 206 205 202 200 204 210 218 224 226 229 233 236 236 236
310 293 269 272 289 307 291 277 275 262 247 247 244 256 259 273 286 288 294 287 270 264 279 285 293 276 266 263 221 222 221 213 214 210 214 217 219 223 226 229 231 232 233
294 300 281 273 276 281 281 276 264 272 264 261 269 255 251 256 270 286 291 281 278 275 278 293 297 280 247 256 247 243 226 213 214 217 221 221 220 225 228 229 229 229 231
279 288 272 247 251 253 268 278 276 280 275 251 264 279 279 275 272 278 280 285 288 275 258 281 290 282 259 234 232 246 248 229 220 221 221 224 224 226 230 228 224 224 226
258 260 258 254 251 231 232 255 262 264 275 278 277 282 286 295 296 292 298 308 305 303 269 263 271 261 251 239 252 263 260 255 250 233 223 224 226 229 230 221 218 220 220
248 262 265 270 262 260 283 280 266 253 251 260 245 246 269 285 311 302 285 292 300 308 297 281 273 275 270 264 273 274 275 254 261 264 247 235 231 230 227 219 219 219 217
265 263 265 277 280 272 310 329 294 264 249 257 260 249 163 91 65 325 307 309 311 291 297 298 292 304 314 325 309 295 292 285 271 260 256 258 239 232 228 226 223 218 216
255 261 263 279 290 297 334 344 330 303 283 273 274 270 205 115 234 237 242 243 236 255 276 284 292 301 306 305 296 292 293 297 290 275 267 269 250 241 226 210 207 208 212
252 263 269 267 273 280 292 300 299 276 274 264 249 250 273 292 326 276 240 236 245 251 244 251 268 282 285 292 297 298 294 286 278 279 274 272 264 257 245 222 195 202 208
254 253 261 259 259 269 282 279 277 249 254 250 240 247 246 247 304 326 297 287 276 279 268 255 250 263 270 279 280 275 273 281 270 273 264 265 274 268 269 219 201 201 206
249 245 250 241 244 241 276 285 270 254 255 257 234 240 235 225 265 290 287 290 301 303 295 286 258 255 263 270 273 286 283 281 283 286 283 259 262 264 255 247 223 209 209
239 246 248 241 224 202 215 234 234 258 262 265 236 210 222 228 217 207 238 281 293 299 307 301 280 265 260 257 252 236 254 275 285 285 278 268 268 281 279 254 228 203 217